Location: Allentsteig
(48.6833°N, 15.3167°E)
Time: 22:33:43
(UTC+00:00)

USA 238 DEB - Pass Details

Date: 20 January 2021
Orbit: 995 x 1217 km, 63.4° (Epoch: 07 March)

Event Time Altitude Azimuth Distance (km) Brightness Sun altitude
Rises 05:34:40 0° 198° (SSW) 3,712 6.5 -11.0°
Reaches altitude 10° 05:37:17 10° 193° (SSW) 2,781 6.0 -10.6°
Maximum altitude 05:43:31 49° 120° (ESE) 1,311 4.7 -9.6°
Drops below altitude 10° 05:50:04 10° 48° (NE) 2,917 6.4 -8.6°
Sets 05:52:52 0° 44° (NE) 3,911 7.0 -8.1°
